Вернуться в каталог

STARLINK-4323

АктивенСвязьSSO
NORAD 53069·PAYLOAD·🇺🇸 United States

Запущен Jul 11, 2022 с Vandenberg Space Force Base

Loading…

Ближайшие Пролёты (ближайшие 24 часа)

TLE

СвежийSource: CelesTrak SupGP

Эпоха: Sep 14, 2026, 20:54 UTC

1 53069C 22077AC  26257.87131944  .00069307  00000+0  21519-2 0  2571
2 53069  97.2853  72.7950 0001577  93.9632 237.1010 15.33397418    10

Отслеживайте STARLINK-4323 в реальном времени с AllMySat

Download on the App Store